K3MJW-2 Weather Reports


time (UTC)temp
C
wind
direction
speed
KPH
gust
KPH
rain 1hr
cm
rain 24hr
cm
rain mn
cm
humidity
%
barometer
mb
20260504042030 7 192 0.0 0.0 0.00 0.00 0.00 2
20260504041530 7 192 0.0 0.0 0.00 0.00 0.00 2
20260504041030 7 192 0.0 0.0 0.00 0.00 0.00 2
20260504040531 7 192 0.0 0.0 0.00 0.00 0.00 2
20260504040030 7 192 0.0 0.0 0.00 0.00 0.00 2
20260504035530 7 192 0.0 0.0 0.00 0.00 0.00 2
20260504035030 7 192 0.0 0.0 0.00 0.00 0.00 2
20260504034530 8 192 0.0 0.0 0.00 0.00 0.00 2
20260504034030 8 192 0.0 0.0 0.00 0.00 0.00 2
20260504033530 8 192 0.0 0.0 0.00 0.00 0.00 2
20260504033030 8 192 0.0 0.0 0.00 0.00 0.00 2
20260504032530 8 192 0.0 0.0 0.00 0.00 0.00 2
20260504032031 8 192 0.0 0.0 0.00 0.00 0.00 2
20260504031530 8 192 0.0 0.0 0.00 0.00 0.00 2
20260504031030 8 192 0.0 0.0 0.00 0.00 0.00 2
20260504030530 8 192 0.0 0.0 0.00 0.00 0.00 2
20260504030030 8 192 0.0 0.0 0.00 0.00 0.00 2
20260504025530 8 192 0.0 0.0 0.00 0.00 0.00 2
20260504025030 8 192 0.0 0.0 0.00 0.00 0.00 2
20260504024530 8 192 0.0 0.0 0.00 0.00 0.00 2
20260504024030 8 192 0.0 0.0 0.00 0.00 0.00 2
20260504023530 8 192 0.0 0.0 0.00 0.00 0.00 2
20260504023031 8 192 0.0 0.0 0.00 0.00 0.00 2
20260504022530 8 192 0.0 0.0 0.00 0.00 0.00 2
20260504022030 8 192 0.0 0.0 0.00 0.00 0.00 2
20260504021530 9 192 0.0 0.0 0.00 0.00 0.00 2
20260504021030 9 192 0.0 0.0 0.00 0.00 0.00 2
20260504020530 9 192 0.0 0.0 0.00 0.00 0.00 2
20260504020030 9 192 0.0 4.8 0.00 0.00 0.00 2
20260504015530 9 211 3.2 4.8 0.00 0.00 0.00 2
20260504015030 9 267 0.0 0.0 0.00 0.00 0.00 2
20260504014530 10 267 0.0 0.0 0.00 0.00 0.00 2
20260504014030 10 267 0.0 0.0 0.00 0.00 0.00 2
20260504013530 10 267 0.0 0.0 0.00 0.00 0.00 2
20260504013030 10 267 0.0 0.0 0.00 0.00 0.00 2
20260504012530 10 267 0.0 0.0 0.00 0.00 0.00 2
20260504012030 10 267 0.0 0.0 0.00 0.00 0.00 2
20260504011530 10 267 0.0 0.0 0.00 0.00 0.00 2
20260504011030 11 267 0.0 0.0 0.00 0.00 0.00 2
20260504010531 11 267 0.0 0.0 0.00 0.00 0.00 2
20260504010030 11 267 0.0 0.0 0.00 0.00 0.00 2
20260504005530 11 267 0.0 0.0 0.00 0.00 0.00 2
20260504005031 11 267 0.0 0.0 0.00 0.00 0.00 2
20260504004530 11 267 0.0 0.0 0.00 0.00 0.00 2
20260504004030 11 267 0.0 0.0 0.00 0.00 0.00 2
20260504003530 11 267 0.0 0.0 0.00 0.00 0.00 2
20260504003030 11 267 0.0 0.0 0.00 0.00 0.00 2
20260504002530 11 267 0.0 0.0 0.00 0.00 0.00 2
20260504002030 11 267 0.0 0.0 0.00 0.00 0.00 2
20260504001530 12 267 0.0 0.0 0.00 0.00 0.00 2
20260504001030 12 267 0.0 8.0 0.00 0.00 0.00 2
20260504000530 12 253 8.0 9.7 0.00 0.00 0.00 2
20260504000030 12 250 4.8 9.7 0.00 0.00 0.00 2
20260503235530 12 245 4.8 9.7 0.00 0.00 0.00 2
20260503235030 12 249 3.2 9.7 0.00 0.00 0.00 2
20260503234530 12 261 8.0 11.3 0.00 0.00 0.00 2
20260503234030 12 241 8.0 11.3 0.00 0.00 0.00 2
20260503233530 12 228 8.0 9.7 0.00 0.00 0.00 2
20260503233030 12 231 8.0 9.7 0.00 0.00 0.00 2
20260503232529 12 260 6.4 9.7 0.00 0.00 0.00 2
20260503232030 12 255 8.0 11.3 0.00 0.00 0.00 2
20260503231530 13 276 4.8 11.3 0.00 0.00 0.00 2
20260503231030 13 193 0.0 14.5 0.00 0.00 0.00 2
20260503230530 13 287 8.0 14.5 0.00 0.00 0.00 2
20260503230030 13 271 1.6 11.3 0.00 0.00 0.00 2
20260503225530 13 271 0.0 9.7 0.00 0.00 0.00 2
20260503225030 13 278 3.2 11.3 0.00 0.00 0.00 2
20260503224530 13 272 3.2 9.7 0.00 0.00 0.00 2
20260503224030 13 252 6.4 9.7 0.00 0.00 0.00 2
20260503223530 13 253 0.0 9.7 0.00 0.00 0.00 2
20260503223030 13 258 8.0 12.9 0.00 0.00 0.00 2
20260503222530 13 275 3.2 14.5 0.00 0.00 0.00 2
20260503222030 13 279 11.3 14.5 0.00 0.00 0.00 2
20260503221530 14 260 0.0 9.7 0.00 0.00 0.00 2
20260503221030 13 271 9.7 12.9 0.00 0.00 0.00 2
20260503220530 14 273 9.7 14.5 0.00 0.00 0.00 2
20260503220030 15 306 9.7 24.1 0.00 0.00 0.00 2
20260503215530 15 285 4.8 12.9 0.00 0.00 0.00 2
20260503215031 14 267 4.8 12.9 0.00 0.00 0.00 2
20260503214530 13 292 6.4 12.9 0.00 0.00 0.00 2
20260503214030 13 254 3.2 19.3 0.00 0.00 0.00 2
20260503213530 14 263 8.0 12.9 0.00 0.00 0.00 2
20260503213030 14 303 4.8 12.9 0.00 0.00 0.00 2
20260503212530 14 261 8.0 14.5 0.00 0.00 0.00 2
20260503212030 13 288 9.7 12.9 0.00 0.00 0.00 2
20260503211530 13 271 8.0 9.7 0.00 0.00 0.00 2
20260503211030 13 255 4.8 9.7 0.00 0.00 0.00 2
20260503210530 13 238 4.8 9.7 0.00 0.00 0.00 2
20260503210030 13 248 9.7 14.5 0.00 0.00 0.00 2
20260503205530 13 268 11.3 16.1 0.00 0.00 0.00 2
20260503205030 13 300 8.0 14.5 0.00 0.00 0.00 2
20260503204530 14 283 3.2 11.3 0.00 0.00 0.00 2
20260503204030 13 279 4.8 14.5 0.00 0.00 0.00 2
20260503203530 14 258 9.7 16.1 0.00 0.00 0.00 2
20260503203030 13 264 11.3 19.3 0.00 0.00 0.00 2
20260503202530 13 265 3.2 11.3 0.00 0.00 0.00 2
20260503202030 14 284 3.2 11.3 0.00 0.00 0.00 2
20260503201530 13 250 9.7 12.9 0.00 0.00 0.00 2
20260503201030 13 263 0.0 12.9 0.00 0.00 0.00 2
20260503200530 13 281 12.9 16.1 0.00 0.00 0.00 2
20260503200029 13 273 11.3 14.5 0.00 0.00 0.00 2
20260503195530 13 244 8.0 14.5 0.00 0.00 0.00 2
20260503195030 13 265 9.7 19.3 0.00 0.00 0.00 2
20260503194530 13 267 11.3 19.3 0.00 0.00 0.00 2
20260503194030 15 290 11.3 22.5 0.00 0.00 0.00 2
20260503193530 13 284 4.8 9.7 0.00 0.00 0.00 2
20260503193030 13 330 8.0 19.3 0.00 0.00 0.00 2
20260503192530 13 284 8.0 12.9 0.00 0.00 0.00 2
20260503192030 12 282 8.0 11.3 0.00 0.00 0.00 2
20260503191530 13 277 9.7 14.5 0.00 0.00 0.00 2
20260503191030 13 314 11.3 16.1 0.00 0.00 0.00 2
20260503190530 13 290 8.0 11.3 0.00 0.00 0.00 2
20260503190030 13 299 8.0 12.9 0.00 0.00 0.00 2
20260503185530 13 278 8.0 12.9 0.00 0.00 0.00 2
20260503185030 13 296 11.3 16.1 0.00 0.00 0.00 2
20260503184530 13 258 9.7 12.9 0.00 0.00 0.00 2
20260503184030 13 290 9.7 12.9 0.00 0.00 0.00 2
20260503183530 13 269 11.3 19.3 0.00 0.00 0.00 2
20260503183030 14 320 8.0 12.9 0.00 0.00 0.00 2
20260503182529 13 266 8.0 11.3 0.00 0.00 0.00 2
20260503182030 12 296 8.0 12.9 0.00 0.00 0.00 2
20260503181530 12 268 9.7 16.1 0.00 0.00 0.00 2
20260503181031 11 232 6.4 14.5 0.00 0.00 0.00 2
20260503180530 12 285 9.7 12.9 0.00 0.00 0.00 2
20260503180030 12 271 4.8 14.5 0.00 0.00 0.00 2
20260503175529 12 297 11.3 16.1 0.00 0.00 0.00 2
20260503175030 12 278 8.0 11.3 0.00 0.00 0.00 2
20260503174529 12 264 9.7 20.9 0.00 0.00 0.00 2
20260503174029 12 267 8.0 11.3 0.00 0.00 0.00 2
20260503173530 12 328 8.0 11.3 0.00 0.00 0.00 2
20260503173029 11 291 1.6 11.3 0.00 0.00 0.00 2
20260503172530 11 294 9.7 14.5 0.00 0.00 0.00 2
20260503172030 12 247 9.7 22.5 0.00 0.00 0.00 2
20260503171530 12 245 11.3 16.1 0.00 0.00 0.00 2
20260503171029 12 211 3.2 12.9 0.00 0.00 0.00 2
20260503170530 12 295 3.2 11.3 0.00 0.00 0.00 2
20260503150529 9 236 3.2 11.3 0.00 0.00 0.00 2
20260503131030 5 268 9.7 11.3 0.00 0.00 0.00 2
20260503130530 5 265 6.4 11.3 0.00 0.00 0.00 2
20260503110530 0 267 0.0 0.0 0.00 0.00 0.00 2
20260503081529 0 267 0.0 0.0 0.00 0.00 0.00 2
20260503081030 0 267 0.0 0.0 0.00 0.00 0.00 2
20260503080530 0 267 0.0 0.0 0.00 0.00 0.00 2
20260503072530 1 267 0.0 0.0 0.00 0.00 0.00 2
20260503072029 1 267 0.0 0.0 0.00 0.00 0.00 2
20260503071530 1 267 0.0 0.0 0.00 0.00 0.00 2
20260503071030 1 267 0.0 0.0 0.00 0.00 0.00 2
20260503070530 1 267 0.0 0.0 0.00 0.00 0.00 2
20260503055030 0 267 0.0 0.0 0.00 0.00 0.00 2
20260503054529 0 267 0.0 0.0 0.00 0.00 0.00 2
20260503054030 0 267 0.0 0.0 0.00 0.00 0.00 2
20260503053530 0 267 0.0 0.0 0.00 0.00 0.00 2
20260503053029 0 267 0.0 0.0 0.00 0.00 0.00 2
20260503052530 0 267 0.0 0.0 0.00 0.00 0.00 2
20260503052029 0 267 0.0 0.0 0.00 0.00 0.00 2
20260503051530 0 267 0.0 0.0 0.00 0.00 0.00 2
20260503051029 0 267 0.0 0.0 0.00 0.00 0.00 2
20260503050530 0 267 0.0 0.0 0.00 0.00 0.00 2
20260503050030 0 267 0.0 0.0 0.00 0.00 0.00 2
20260503045530 0 267 0.0 0.0 0.00 0.00 0.00 2
20260503045030 0 267 0.0 0.0 0.00 0.00 0.00 2
20260503044530 0 267 0.0 0.0 0.00 0.00 0.00 2
20260503044030 0 267 0.0 0.0 0.00 0.00 0.00 2
20260503043529 1 267 0.0 0.0 0.00 0.00 0.00 2
20260503043030 1 267 0.0 0.0 0.00 0.00 0.00 2
20260503042529 1 267 0.0 0.0 0.00 0.00 0.00 2